GW6964 Weather Reports


time (UTC)temp
C
wind
direction
speed
KPH
gust
KPH
rain 1hr
cm
rain 24hr
cm
rain mn
cm
humidity
%
barometer
mb
20260510180206 20 97 3.2 12.9 0.00 0.00 0.00 47 1020.0
20260510175702 20 124 4.8 9.7 0.00 0.00 0.00 46 1019.7
20260510175158 20 93 8.0 11.3 0.00 0.00 0.00 46 1019.9
20260510174655 20 91 9.7 12.9 0.00 0.00 0.00 45 1019.9
20260510174153 20 17 12.9 20.9 0.00 0.00 0.00 45 1019.8
20260510173649 20 65 4.8 14.5 0.00 0.00 0.00 48 1019.8
20260510173145 20 23 6.4 14.5 0.00 0.00 0.00 47 1020.0
20260510172640 20 91 6.4 9.7 0.00 0.00 0.00 46 1019.8
20260510172137 21 75 11.3 14.5 0.00 0.00 0.00 46 1019.8
20260510171634 21 68 6.4 12.9 0.00 0.00 0.00 47 1019.5
20260510171131 21 30 8.0 14.5 0.00 0.00 0.00 46 1019.4
20260510170627 21 100 1.6 14.5 0.00 0.00 0.00 48 1019.2
20260510170124 21 58 14.5 17.7 0.00 0.00 0.00 48 1019.3
20260510165620 21 75 4.8 16.1 0.00 0.00 0.00 50 1019.3
20260510165115 20 99 9.7 17.7 0.00 0.00 0.00 48 1019.3
20260510164614 20 79 4.8 16.1 0.00 0.00 0.00 52 1019.2
20260510164110 20 44 17.7 20.9 0.00 0.00 0.00 48 1019.4
20260510163605 20 62 19.3 30.6 0.00 0.00 0.00 48 1019.1
20260510163101 20 112 12.9 17.7 0.00 0.00 0.00 50 1019.1
20260510162556 20 63 3.2 12.9 0.00 0.00 0.00 54 1019.2
20260510162053 19 70 3.2 12.9 0.00 0.00 0.00 55 1019.1
20260510161549 19 81 9.7 20.9 0.00 0.00 0.00 52 1018.9
20260510161046 19 68 4.8 12.9 0.00 0.00 0.00 57 1019.1
20260510160543 18 80 6.4 11.3 0.00 0.00 0.00 58 1019.1
20260510160042 18 114 6.4 20.9 0.00 0.00 0.00 57 1019.0
20260510155539 18 69 8.0 20.9 0.00 0.00 0.00 59 1018.9
20260510155035 18 109 8.0 14.5 0.00 0.00 0.00 61 1018.7
20260510154531 18 334 11.3 17.7 0.00 0.00 0.00 61 1018.7
20260510154026 18 42 9.7 16.1 0.00 0.00 0.00 61 1018.5
20260510153521 17 91 3.2 14.5 0.00 0.00 0.00 63 1018.3
20260510153019 17 60 16.1 25.7 0.00 0.00 0.00 63 1018.2
20260510152516 17 86 9.7 16.1 0.00 0.00 0.00 66 1017.9
20260510152012 17 90 3.2 14.5 0.00 0.00 0.00 69 1018.2
20260510151509 17 51 6.4 25.7 0.00 0.00 0.00 69 1017.9
20260510151006 17 82 8.0 17.7 0.00 0.00 0.00 70 1017.9
20260510150501 17 51 14.5 22.5 0.00 0.00 0.00 70 1018.0
20260510145957 17 82 8.0 20.9 0.00 0.00 0.00 72 1018.0
20260510145454 17 63 11.3 25.7 0.00 0.00 0.00 71 1018.0
20260510144950 17 47 9.7 17.7 0.00 0.00 0.00 72 1018.2
20260510144447 17 74 4.8 14.5 0.00 0.00 0.00 72 1018.1
20260510143943 16 78 3.2 12.9 0.00 0.00 0.00 73 1018.1
20260510143439 17 43 11.3 17.7 0.00 0.00 0.00 73 1018.2
20260510142936 17 27 8.0 14.5 0.00 0.00 0.00 75 1018.1
20260510142433 17 90 6.4 22.5 0.00 0.00 0.00 75 1018.3
20260510141929 16 82 4.8 6.4 0.00 0.00 0.00 76 1018.5
20260510141426 16 84 4.8 11.3 0.00 0.00 0.00 75 1018.3
20260510140924 16 87 3.2 6.4 0.00 0.00 0.00 75 1018.2
20260510140420 16 97 1.6 12.9 0.00 0.00 0.00 75 1018.2
20260510135919 16 83 4.8 12.9 0.00 0.00 0.00 75 1018.1
20260510135415 16 140 3.2 6.4 0.00 0.00 0.00 75 1018.0
20260510134913 16 48 3.2 9.7 0.00 0.00 0.00 75 1018.0
20260510134409 17 103 4.8 16.1 0.00 0.00 0.00 74 1018.0
20260510133905 17 129 3.2 9.7 0.00 0.00 0.00 75 1017.8
20260510133402 17 89 4.8 9.7 0.00 0.00 0.00 74 1017.9
20260510132857 17 96 3.2 4.8 0.00 0.00 0.00 75 1017.9
20260510132355 17 34 3.2 11.3 0.00 0.00 0.00 76 1017.7
20260510131851 16 80 6.4 12.9 0.00 0.00 0.00 77 1017.7
20260510131349 16 90 3.2 9.7 0.00 0.00 0.00 77 1017.6
20260510130845 16 48 6.4 9.7 0.00 0.00 0.00 77 1017.6
20260510130343 16 74 9.7 12.9 0.00 0.00 0.00 78 1017.4
20260510125839 16 34 6.4 12.9 0.00 0.00 0.00 78 1017.2
20260510125335 16 90 3.2 4.8 0.00 0.00 0.00 78 1017.1
20260510124833 17 99 6.4 12.9 0.00 0.00 0.00 77 1017.1
20260510124329 16 97 3.2 12.9 0.00 0.00 0.00 77 1016.7
20260510123825 16 68 4.8 9.7 0.00 0.00 0.00 78 1016.7
20260510123321 16 61 3.2 9.7 0.00 0.00 0.00 80 1016.8
20260510122817 15 93 3.2 9.7 0.00 0.00 0.00 81 1016.6
20260510122313 15 90 4.8 11.3 0.00 0.00 0.00 81 1016.5
20260510121810 15 73 3.2 6.4 0.00 0.00 0.00 81 1016.6
20260510121308 15 67 6.4 9.7 0.00 0.00 0.00 81 1016.4
20260510120805 15 68 1.6 3.2 0.00 0.00 0.00 83 1015.9
20260510120301 15 136 0.0 1.6 0.00 0.00 0.00 83 1016.0
20260510115757 15 126 3.2 4.8 0.00 0.00 0.00 82 1016.1
20260510115255 15 102 3.2 4.8 0.00 0.00 0.00 82 1015.8
20260510114755 15 87 1.6 3.2 0.00 0.00 0.00 82 1015.9
20260510114253 15 138 0.0 3.2 0.00 0.00 0.00 82 1015.5
20260510113754 15 92 1.6 4.8 0.00 0.00 0.00 82 1015.4
20260510113251 15 96 3.2 4.8 0.00 0.00 0.00 82 1015.2
20260510112747 14 81 1.6 4.8 0.00 0.00 0.00 83 1015.3
20260510112244 14 94 3.2 4.8 0.00 0.00 0.00 84 1015.3
20260510111740 13 102 0.0 4.8 0.00 0.00 0.00 85 1015.2
20260510111237 13 116 0.0 1.6 0.00 0.00 0.00 87 1015.2
20260510110736 13 105 0.0 3.2 0.00 0.00 0.00 89 1015.2
20260510110235 13 65 1.6 3.2 0.00 0.00 0.00 90 1015.0
20260510105734 13 101 0.0 1.6 0.00 0.00 0.00 90 1014.8
20260510105229 13 67 0.0 0.0 0.00 0.00 0.00 89 1014.7
20260510104726 13 99 0.0 0.0 0.00 0.00 0.00 88 1014.5
20260510104224 13 165 0.0 0.0 0.00 0.00 0.00 88 1014.3
20260510103720 13 117 0.0 0.0 0.00 0.00 0.00 87 1014.4
20260510103217 13 122 0.0 0.0 0.00 0.00 0.00 87 1014.5
20260510102717 13 171 1.6 3.2 0.00 0.00 0.00 87 1014.5
20260510102213 13 117 0.0 3.2 0.00 0.00 0.00 89 1014.6
20260510101710 13 21 1.6 3.2 0.00 0.00 0.00 91 1014.7
20260510101209 13 130 1.6 1.6 0.00 0.00 0.00 92 1014.6
20260510100704 12 167 0.0 0.0 0.00 0.00 0.00 91 1014.5
20260510100202 12 167 0.0 0.0 0.00 0.00 0.00 91 1014.3
20260510095657 12 167 0.0 0.0 0.00 0.00 0.00 90 1014.4
20260510095153 12 168 0.0 0.0 0.00 0.00 0.00 90 1014.5
20260510094651 13 168 0.0 0.0 0.00 0.00 0.00 90 1014.3
20260510094148 13 168 0.0 0.0 0.00 0.00 0.00 89 1014.5
20260510093644 13 168 0.0 0.0 0.00 0.00 0.00 89 1014.5
20260510093141 13 169 0.0 0.0 0.00 0.00 0.00 89 1014.2
20260510092637 13 169 0.0 0.0 0.00 0.00 0.00 89 1014.1
20260510092133 13 169 0.0 0.0 0.00 0.00 0.00 88 1014.0
20260510091629 13 169 0.0 0.0 0.00 0.00 0.00 88 1013.9
20260510091125 13 137 0.0 0.0 0.00 0.00 0.00 88 1013.8
20260510090623 13 88 0.0 0.0 0.00 0.00 0.00 88 1013.6
20260510090119 14 114 0.0 0.0 0.00 0.00 0.00 88 1013.6
20260510085614 14 138 0.0 0.0 0.00 0.00 0.00 87 1013.7
20260510085109 14 137 0.0 0.0 0.00 0.00 0.00 85 1013.5
20260510084606 14 137 0.0 0.0 0.00 0.00 0.00 85 1013.6
20260510084103 14 138 0.0 0.0 0.00 0.00 0.00 84 1013.6
20260510083559 15 137 0.0 0.0 0.00 0.00 0.00 84 1013.5
20260510083055 15 138 0.0 0.0 0.00 0.00 0.00 83 1013.5
20260510082552 15 138 0.0 0.0 0.00 0.00 0.00 82 1013.5
20260510082048 15 137 0.0 0.0 0.00 0.00 0.00 81 1013.4
20260510081543 15 137 0.0 0.0 0.00 0.00 0.00 80 1013.3
20260510081039 16 137 0.0 0.0 0.00 0.00 0.00 79 1013.5
20260510080538 16 137 0.0 0.0 0.00 0.00 0.00 77 1013.4
20260510080035 16 137 0.0 0.0 0.00 0.00 0.00 75 1013.3
20260510075533 17 112 0.0 0.0 0.00 0.00 0.00 73 1013.3
20260510075029 17 99 0.0 0.0 0.00 0.00 0.00 73 1013.5
20260510074527 17 84 0.0 0.0 0.00 0.00 0.00 68 1013.6
20260510074022 18 45 0.0 0.0 0.00 0.00 0.00 67 1013.3
20260510073518 17 83 0.0 3.2 0.00 0.00 0.00 67 1013.5
20260510073015 17 0 1.6 3.2 0.00 0.00 0.00 67 1013.6
20260510072512 17 134 0.0 3.2 0.00 0.00 0.00 69 1013.4
20260510072008 17 88 0.0 1.6 0.00 0.00 0.00 70 1013.4
20260510071504 17 50 3.2 4.8 0.00 0.00 0.00 73 1013.4
20260510071003 17 100 0.0 1.6 0.00 0.00 0.00 77 1013.0
20260510070459 17 351 3.2 3.2 0.00 0.00 0.00 75 1012.6
20260510065955 16 214 1.6 1.6 0.00 0.00 0.00 76 1012.3
20260510065452 16 211 0.0 1.6 0.00 0.00 0.00 81 1012.1
20260510064948 16 219 0.0 1.6 0.00 0.00 0.00 83 1012.2
20260510064445 16 156 0.0 0.0 0.00 0.00 0.00 86 1012.3
20260510063942 15 108 0.0 0.0 0.00 0.00 0.00 87 1012.4
20260510063438 15 101 0.0 0.0 0.00 0.00 0.00 89 1012.6
20260510062936 15 166 0.0 0.0 0.00 0.00 0.00 91 1012.4
20260510062436 15 208 0.0 0.0 0.00 0.00 0.00 91 1012.8
20260510061932 15 155 0.0 0.0 0.00 0.00 0.00 92 1012.9
20260510061429 15 154 0.0 1.6 0.00 0.00 0.00 92 1012.7
20260510060925 14 155 0.0 0.0 0.00 0.00 0.00 94 1012.9
20260510060422 14 155 0.0 0.0 0.00 0.00 0.00 94 1013.1
20260510055919 14 155 0.0 0.0 0.00 0.00 0.00 94 1012.9
20260510055414 14 156 0.0 0.0 0.00 0.00 0.00 95 1013.3
20260510054912 14 156 0.0 0.0 0.00 0.00 0.00 95 1013.3
20260510054408 14 153 0.0 0.0 0.00 0.00 0.00 95 1013.5
20260510053903 14 153 0.0 0.0 0.00 0.00 0.00 95 1013.4
20260510053359 14 153 0.0 0.0 0.00 0.00 0.00 95 1013.5
20260510052855 14 153 0.0 0.0 0.00 0.00 0.00 95 1013.5
20260510052351 14 153 0.0 3.2 0.00 0.00 0.00 95 1013.4
20260510051847 14 203 0.0 0.0 0.00 0.00 0.00 95 1013.6
20260510051344 13 203 0.0 0.0 0.00 0.00 0.00 95 1013.6
20260510050841 13 203 0.0 0.0 0.00 0.00 0.00 95 1013.7
20260510050338 13 202 0.0 0.0 0.00 0.00 0.00 95 1013.3
20260510045835 13 203 0.0 0.0 0.00 0.03 0.03 95 1013.4
20260510045331 13 203 0.0 0.0 0.00 0.03 0.03 94 1013.3
20260510044829 13 203 0.0 0.0 0.00 0.03 0.03 94 1013.4
20260510044326 13 203 0.0 0.0 0.00 0.03 0.03 94 1013.4
20260510043822 13 202 0.0 0.0 0.00 0.03 0.03 94 1013.1
20260510043318 13 202 0.0 0.0 0.00 0.03 0.03 94 1013.0
20260510042816 13 202 0.0 0.0 0.00 0.03 0.03 94 1013.1
20260510042311 13 203 0.0 0.0 0.00 0.03 0.03 93 1013.2
20260510041808 13 203 0.0 0.0 0.00 0.03 0.03 93 1013.2
20260510041305 13 202 0.0 0.0 0.00 0.03 0.03 93 1013.2
20260510040803 13 202 0.0 0.0 0.00 0.03 0.03 93 1013.2
20260510040259 13 202 0.0 0.0 0.00 0.03 0.03 93 1013.3
20260510035755 13 202 0.0 0.0 0.00 0.03 0.03 93 1013.1
20260510035250 13 202 0.0 0.0 0.00 0.03 0.03 92 1012.9
20260510034746 13 202 0.0 0.0 0.00 0.03 0.03 92 1013.1
20260510034245 13 203 0.0 0.0 0.00 0.03 0.03 92 1013.0
20260510033740 13 203 0.0 0.0 0.00 0.03 0.03 92 1012.9
20260510033238 13 203 0.0 0.0 0.00 0.03 0.03 92 1012.8
20260510032734 13 203 0.0 0.0 0.00 0.03 0.03 92 1012.6
20260510032230 13 203 0.0 0.0 0.00 0.03 0.03 91 1012.6
20260510031726 13 203 0.0 0.0 0.00 0.03 0.03 91 1012.4
20260510031222 13 203 0.0 0.0 0.00 0.03 0.03 91 1012.3
20260510030721 13 203 0.0 0.0 0.00 0.03 0.03 90 1012.3
20260510030219 13 203 0.0 0.0 0.00 0.03 0.03 90 1012.2
20260510025716 13 203 0.0 0.0 0.00 0.03 0.03 90 1012.2
20260510025213 13 203 0.0 0.0 0.00 0.03 0.03 89 1012.1
20260510024710 13 203 0.0 0.0 0.00 0.03 0.03 89 1012.2
20260510024207 13 203 0.0 0.0 0.00 0.03 0.03 88 1012.0
20260510023702 13 203 0.0 0.0 0.00 0.03 0.03 88 1012.0
20260510023200 14 203 0.0 0.0 0.00 0.03 0.03 88 1011.9
20260510022655 14 203 0.0 0.0 0.00 0.03 0.03 87 1011.7
20260510022150 14 203 0.0 0.0 0.00 0.03 0.03 87 1011.7
20260510021646 15 203 0.0 0.0 0.00 0.03 0.03 86 1011.5
20260510021144 15 203 0.0 0.0 0.00 0.03 0.03 86 1011.4
20260510020644 15 203 0.0 0.0 0.00 0.03 0.03 85 1011.2
20260510020139 15 202 0.0 0.0 0.00 0.03 0.03 84 1011.0
20260510015635 15 202 0.0 0.0 0.00 0.03 0.03 83 1011.2
20260510015132 16 203 0.0 0.0 0.00 0.03 0.03 82 1010.9
20260510014627 16 203 0.0 0.0 0.00 0.03 0.03 81 1010.8
20260510014125 16 203 0.0 0.0 0.00 0.03 0.03 80 1010.8
20260510013625 17 203 0.0 0.0 0.00 0.03 0.03 79 1010.8
20260510013121 17 203 0.0 0.0 0.00 0.03 0.03 77 1010.6
20260510012620 17 203 0.0 0.0 0.00 0.03 0.03 75 1010.4
20260510012117 18 203 0.0 0.0 0.00 0.03 0.03 74 1010.4
20260510011616 19 203 0.0 0.0 0.00 0.03 0.03 72 1010.3
20260510011112 20 203 0.0 0.0 0.00 0.03 0.03 69 1010.3
20260510010609 20 202 0.0 0.0 0.00 0.03 0.03 66 1009.9
20260510010107 21 202 0.0 0.0 0.00 0.03 0.03 63 1010.0
20260510005601 21 202 0.0 0.0 0.00 0.03 0.03 62 1010.2
20260510005059 22 202 0.0 0.0 0.00 0.03 0.03 58 1010.1
20260510004557 23 202 0.0 0.0 0.00 0.03 0.03 57 1010.0
20260510004055 23 203 0.0 0.0 0.00 0.03 0.03 54 1010.0
20260510003552 25 203 0.0 0.0 0.00 0.03 0.03 54 1010.0
20260510003047 26 203 0.0 0.0 0.00 0.03 0.03 52 1009.9
20260510002542 26 200 0.0 0.0 0.00 0.03 0.03 46 1009.9
20260510002040 27 201 0.0 0.0 0.00 0.03 0.03 43 1009.9
20260510001537 28 220 1.6 3.2 0.00 0.03 0.03 38 1009.9
20260510001036 28 207 0.0 1.6 0.00 0.03 0.03 43 1009.9
20260510000530 28 209 1.6 1.6 0.00 0.03 0.03 40 1010.0
20260510000027 28 203 0.0 0.0 0.00 0.03 0.03 43 1009.9
20260509235524 28 234 3.2 3.2 0.00 0.03 0.03 38 1010.0
20260509235021 28 200 1.6 3.2 0.00 0.03 0.03 36 1010.0
20260509234517 28 201 0.0 1.6 0.00 0.03 0.03 40 1010.1
20260509234015 28 201 1.6 1.6 0.00 0.03 0.03 37 1010.2
20260509233512 28 214 1.6 3.2 0.00 0.03 0.03 39 1010.2
20260509233009 29 259 4.8 6.4 0.00 0.03 0.03 36 1010.1
20260509232506 29 216 1.6 6.4 0.00 0.03 0.03 36 1010.1
20260509232002 29 156 3.2 3.2 0.00 0.03 0.03 33 1010.1
20260509231459 29 187 0.0 4.8 0.00 0.03 0.03 34 1010.0
20260509230957 30 177 3.2 6.4 0.00 0.03 0.03 32 1010.1
20260509230453 29 213 0.0 1.6 0.00 0.03 0.03 33 1010.1
20260509225949 29 191 1.6 3.2 0.00 0.03 0.03 33 1010.1
20260509225446 30 233 1.6 6.4 0.00 0.03 0.03 33 1010.1
20260509224942 30 245 3.2 3.2 0.00 0.03 0.03 33 1010.1
20260509224437 30 225 3.2 6.4 0.00 0.03 0.03 29 1010.1
20260509223935 30 168 1.6 9.7 0.00 0.03 0.03 33 1010.1
20260509223431 30 196 0.0 4.8 0.00 0.03 0.03 33 1010.2
20260509222929 30 178 3.2 4.8 0.00 0.03 0.03 30 1010.2
20260509222423 31 231 4.8 9.7 0.00 0.03 0.03 30 1010.0
20260509221919 30 191 0.0 3.2 0.00 0.03 0.03 28 1010.2
20260509221416 30 147 0.0 1.6 0.00 0.03 0.03 29 1010.2
20260509220912 30 260 1.6 6.4 0.00 0.03 0.03 30 1010.1
20260509220408 30 219 3.2 4.8 0.00 0.03 0.03 31 1010.3
20260509215904 29 266 6.4 6.4 0.00 0.03 0.03 31 1010.3
20260509215400 28 272 0.0 3.2 0.00 0.03 0.03 37 1010.3
20260509214858 29 246 3.2 4.8 0.00 0.03 0.03 30 1010.3
20260509214355 30 245 3.2 9.7 0.00 0.03 0.03 30 1010.2
20260509213853 30 256 4.8 4.8 0.00 0.03 0.03 33 1010.2
20260509213353 30 268 3.2 4.8 0.00 0.03 0.03 31 1010.2
20260509212851 30 251 3.2 6.4 0.00 0.03 0.03 31 1010.2
20260509212348 30 242 8.0 12.9 0.00 0.03 0.03 31 1010.3
20260509211844 30 208 4.8 4.8 0.00 0.03 0.03 29 1010.4
20260509211340 30 152 1.6 4.8 0.00 0.03 0.03 34 1010.6
20260509210836 30 196 1.6 3.2 0.00 0.03 0.03 31 1010.5
20260509210334 30 128 0.0 4.8 0.00 0.03 0.03 32 1010.6
20260509205834 29 267 1.6 1.6 0.00 0.03 0.03 33 1010.5
20260509205329 29 181 1.6 4.8 0.00 0.03 0.03 32 1010.8
20260509204826 29 279 9.7 11.3 0.00 0.03 0.03 32 1010.5
20260509204322 29 291 11.3 12.9 0.00 0.03 0.03 32 1010.6
20260509203818 28 254 6.4 6.4 0.00 0.03 0.03 32 1010.8
20260509203315 28 257 3.2 9.7 0.00 0.03 0.03 31 1010.9
20260509202811 29 252 3.2 12.9 0.00 0.03 0.03 31 1011.1
20260509202308 29 209 3.2 6.4 0.00 0.03 0.03 35 1010.7
20260509201808 29 10 8.0 11.3 0.00 0.03 0.03 33 1010.9
20260509201305 29 237 4.8 9.7 0.00 0.03 0.03 32 1010.9
20260509200801 29 282 3.2 11.3 0.00 0.03 0.03 30 1011.1
20260509200256 29 47 4.8 4.8 0.00 0.03 0.03 32 1011.0
20260509195753 28 245 4.8 11.3 0.00 0.03 0.03 32 1011.0
20260509195248 29 185 6.4 9.7 0.00 0.03 0.03 32 1011.0
20260509194747 29 53 1.6 4.8 0.00 0.03 0.03 35 1011.0
20260509194244 28 243 1.6 4.8 0.00 0.03 0.03 34 1011.1
20260509193741 28 241 6.4 11.3 0.00 0.03 0.03 36 1010.9
20260509193240 28 320 1.6 4.8 0.00 0.03 0.03 27 1011.0
20260509192737 28 232 3.2 6.4 0.00 0.03 0.03 35 1011.2
20260509192232 28 241 3.2 4.8 0.00 0.03 0.03 40 1011.1
20260509191728 28 243 3.2 6.4 0.00 0.03 0.03 32 1011.3
20260509191225 27 225 4.8 11.3 0.00 0.03 0.03 34 1011.4
20260509190721 28 256 8.0 11.3 0.00 0.03 0.03 39 1011.2
20260509190218 27 207 3.2 4.8 0.00 0.03 0.03 38 1011.5
20260509185716 27 270 9.7 12.9 0.00 0.03 0.03 35 1011.5
20260509185212 27 264 6.4 9.7 0.00 0.03 0.03 39 1011.5
20260509184710 27 246 6.4 11.3 0.00 0.03 0.03 38 1011.4
20260509184207 27 240 3.2 9.7 0.00 0.03 0.03 45 1011.4
20260509183703 27 276 1.6 9.7 0.00 0.03 0.03 43 1011.5
20260509183158 27 280 3.2 6.4 0.00 0.03 0.03 39 1011.6
20260509182654 27 267 4.8 11.3 0.00 0.03 0.03 41 1011.6
20260509182152 28 270 6.4 11.3 0.00 0.03 0.03 39 1011.5
20260509181649 27 297 3.2 4.8 0.00 0.03 0.03 40 1011.5
20260509181147 28 241 9.7 11.3 0.00 0.03 0.03 37 1011.6
20260509180643 28 183 3.2 11.3 0.00 0.03 0.03 40 1011.6